Welcome to the New NWS' Forecast!
Most changes are behind the scenes, but click here for differences you might notice.
Latest weather observations around

Camp Springs / Andrews Air Force Base (KADW)

Using English Units (Switch to International System of Units)
Date/ Time (EST) Wind (mph) Vis. (mi) Weather Sky Cond. Temp (°F) Rel. Humidity Wind Chill (°F) Heat Index (°F) Pressure Precip. (in)
Air Dwpt 6 hour Altimeter (inHg) Sea level (inHg) 1 hr 3 hr 6 hr
Max Min
Jan 18 01:56   10 Clear CLR 17 5     59%     30.2 30.23      
Jan 18 00:56 NNW 16 10 Clear CLR 18 6     59% 3   30.24 30.27      
Jan 17 23:56 NW 13 10 Mostly Cloudy FEW085 BKN120 BKN140 19 6     58% 6   30.27 30.3      
Jan 17 22:56 NW 16 10 Mostly Clear FEW140 19 7     58% 5   30.27 30.3      
Jan 17 21:56 NW 15 10 Mostly Cloudy BKN070 21 8     55% 8   30.28 30.31      
Jan 17 20:56 NW 13 10 Mostly Cloudy BKN065 22 7     53% 10   30.28 30.31      
Jan 17 19:56 NNW 15 10 Mostly Clear FEW065 22 7     51% 9   30.28 30.31      
Jan 17 18:56 NW 13 10 Clear CLR 23 7     50% 11   30.29 30.32      
Jan 17 17:56 NNW 14 10 Clear CLR 23 7     50% 11   30.3 30.33      
Jan 17 16:56 NNW 15 10 Clear CLR 24 8     50% 11   30.28 30.31      
Jan 17 15:56 NNW 14 10 Mostly Clear FEW200 24 8     50% 12   30.29 30.32      
Jan 17 14:56 NW 17 10 Clear CLR 25 9     51% 11   30.3 30.33      
Jan 17 13:56 NW 17 10 Mostly Clear FEW110 FEW150 FEW200 24 8     50% 11   30.31 30.34      
Jan 17 12:56 NNW 13 10 Mostly Clear FEW140 FEW170 25 10     53% 13   30.33 30.36     0
Jan 17 11:56 NNW 17 10 Partly Cloudy FEW110 SCT200 24 10     54% 11   30.35 30.38      
Jan 17 10:56 NNW 18 10 Mostly Clear FEW170 FEW200 24 11     58% 10   30.38 30.41 0    
Jan 17 10:10 NNW 18 10 Mostly Clear FEW180 FEW210 25 12     58% 11   30.38 30.41      
Jan 17 10:01   10 Light Drizzle FEW180 FEW210 25 12     58%     30.38 30.41      
Jan 17 09:56 NNW 13 10 Mostly Clear FEW180 25 13     60% 13   30.38 30.41   0  
Jan 17 08:56 NNW 17 10 Clear CLR 24 15     67% 11   30.37 30.4 0    
Jan 17 07:56 NNW 14 10 Clear CLR 24 17     75% 12   30.36 30.39 0    
Jan 17 07:11 NW 13 8 Partly Cloudy SCT009 25 21     86% 13   30.35 30.38      
Jan 17 07:06 NW 13 6 Fog/Mist SCT009 25 21     86% 13   30.35 30.38      
Jan 17 07:01 NW 13 6 Mostly Cloudy BKN009 BKN018 25 21     86% 13   30.35 30.38      
Jan 17 06:56 NW 11 5 Mostly Cloudy BKN015 25 21     84% 14   30.35 30.38 0   0
Jan 17 06:49 NW 15 6 Mostly Cloudy BKN017 25 21     86% 12   30.35 30.38      
Jan 17 06:45 NW 14 9 Mostly Cloudy BKN019 25 21     86% 13   30.35 30.38      
Notice The following observation data may not be complete
Jan 17 06:34   10 Mostly Cloudy FEW012 BKN020          %              
Jan 17 06:09   5 Light Snow and Fog/Mist FEW009 OVC016 27 23     86%     30.34 30.37      
Jan 17 05:59 NW 15 3 Light Snow and Fog/Mist FEW009 OVC012 28 25     86% 17   30.35 30.38      
Jan 17 05:32 NW 14 3 Light Snow and Fog/Mist OVC010 30 27     86% 20   30.33 30.36      
Jan 17 05:30   2.75 Light Snow and Fog/Mist OVC010 30 27     86%     30.33 30.36      
Jan 17 05:24 NW 11 2.25 Light Snow and Fog/Mist OVC010 30 27     86% 21   30.33 30.36      
Jan 17 05:20 NW 11 2 Light Snow and Fog/Mist OVC012 30 27     86% 21   30.33 30.36      
Notice The following observation data may not be complete
Jan 17 05:08   1.88 Light Snow and Fog/Mist OVC012          %              
Jan 17 05:05 NW 11 2.25 Light Snow and Fog/Mist OVC012 30 28     93% 21   30.32 30.35      
Notice The following observation data may not be complete
Jan 17 05:03   2.5 Light Snow and Fog/Mist OVC012          %              
Notice The following observation data may not be complete
Jan 17 05:02   2.75 Light Snow and Fog/Mist OVC012          %              
Jan 17 04:56 NW 11 3 Light Snow and Fog/Mist OVC012 30 28     91% 21   30.31 30.34 0    
Jan 17 04:54 NW 14 3 Light Snow and Fog/Mist OVC012 30 28     93% 20   30.31 30.34      
Jan 17 04:51 NW 11 2.75 Light Snow and Fog/Mist OVC012 30 28     93% 21   30.31 30.34      
Jan 17 04:47 NW 10 2.5 Light Snow and Fog/Mist OVC010 30 28     93% 21   30.31 30.34      
Jan 17 03:56 NW 9 3 Light Snow and Fog/Mist OVC010 31 28     90% 23   30.3 30.33 0 0  
Jan 17 03:48 NW 9 3 Light Snow and Fog/Mist OVC009 32 28     86% 24   30.3 30.33      
Jan 17 03:33 NW 10 3 Light Snow and Fog/Mist OVC010 32 28     86% 24   30.3 30.33      
Jan 17 03:25 NW 13 2.75 Light Snow and Fog/Mist OVC011 32 28     86% 22   30.31 30.34      
Jan 17 03:17 NW 10 3 Light Snow and Fog/Mist OVC011 32 28     86% 24   30.31 30.34      
Jan 17 03:14 NNW 8 2.75 Light Snow and Fog/Mist OVC011 32 28     86% 25   30.31 30.34      
Jan 17 02:56 NW 11 4 Light Snow and Fog/Mist OVC011 32 29     87% 23   30.31 30.34 0    
Jan 17 02:36 NNW 9 8 Light Snow BKN010 34 28     80% 26   30.31 30.34      
Notice The following observation data may not be complete
Jan 17 02:21   10 Light Snow SCT009 BKN060          %              
Jan 17 02:16 NW 11 10 Mostly Cloudy SCT009 BKN060 34 28     80% 25   30.3 30.33      
Jan 17 02:11 NNW 10 10 Cloudy BKN009 OVC060 34 30     86% 26   30.3 30.33      
Jan 17 01:56 NW 11 10 Mostly Cloudy BKN060 33 29     83% 25   30.3 30.33 0    
Jan 17 01:46 NW 8 10 Mostly Clear FEW060 34 28     80% 27   30.3 30.33      
Jan 17 01:42 WNW 9 10 Mostly Clear FEW060 34 28     80% 26   30.3 30.33      
Jan 17 00:56 NW 11 10 Clear CLR 35 27     72% 27   30.3 30.33      
Notice The following observation data may not be complete
Jan 16 23:56   10 Clear CLR          %              
Jan 16 22:56 NNE 3 10 Clear CLR 33 27     78% 30   30.32 30.35      
Jan 16 20:56 Calm 10 Clear CLR 33 25     72%     30.34 30.37      
Jan 16 19:56 Calm 10 Clear CLR 33 24     71%     30.34 30.37      
Jan 16 18:56 W 3 10 Clear CLR 34 24     68% 31   30.34 30.37      
Jan 16 17:56 Calm 10 Clear CLR 35 24     65%     30.35 30.38      
Jan 16 16:56 Calm 10 Clear CLR 38 25     59%     30.35 30.38      
Jan 16 15:56 SE 5 10 Clear CLR 41 24     51% 37   30.34 30.37      
Jan 16 14:56 Calm 10 Clear CLR 42 20     42%     30.35 30.38      
Jan 16 13:56 SSE 5 10 Clear   42 22     46% 39   30.37 30.4      
Jan 16 12:56 Calm 10 Mostly Clear FEW170 38 25     57%     30.39 30.42     0
Jan 16 11:01 ESE 3 10 Mostly Cloudy SCT010 BKN200 34 27     75% 31   30.45 30.48      
Jan 16 10:56 E 5 10 Mostly Cloudy BKN009 33 27     78% 29   30.45 30.48      
Notice The following observation data may not be complete
Jan 16 10:43   10 Mostly Cloudy BKN009          %              
Jan 16 09:58 Calm 10 Cloudy OVC006 30 28     93%     30.47 30.5      
Jan 16 09:56 Calm 10 Light Drizzle OVC006 30 28     92%     30.47 30.5 0 0  
Jan 16 09:54 Calm 10 Light Drizzle OVC006 30 28     93%     30.47 30.5      
Jan 16 09:51 Calm 10 Light Drizzle OVC006 28 27     93%     30.47 30.5      
Jan 16 09:01 E 3 10 Cloudy OVC005 28 27     93% 25   30.48 30.51      
Jan 16 08:56 E 3 10 Cloudy OVC004 28 27     94% 25   30.48 30.51      
Jan 16 07:56 SE 7 10 Cloudy OVC004 27 26     94% 20   30.46 30.49      
Notice The following observation data may not be complete
Jan 16 07:36   10 Cloudy OVC004          %              
Jan 16 07:21 S 3 10 Cloudy OVC003 28 27     93% 25   30.46 30.49      
Jan 16 06:56 SE 5 10 Cloudy OVC004 28 26     94% 22   30.46 30.49      
Jan 16 06:21 S 5 10 Cloudy OVC004 28 27     93% 23   30.46 30.49      
Jan 16 06:01 S 3 10 Cloudy OVC003 28 27     93% 25   30.46 30.49      
Jan 16 05:56 SSE 5 10 Cloudy OVC004 28 26     95% 22   30.45 30.48      
Jan 16 05:41 S 3 10 Cloudy OVC004 28 27     93% 25   30.45 30.48      
Jan 16 05:21 S 5 10 Cloudy OVC003 28 27     93% 23   30.44 30.47      
Jan 16 04:56 Calm 8 Cloudy OVC004 28 27     95%     30.44 30.47      
Jan 16 04:41 Calm 3 Fog/Mist OVC004 28 27     93%     30.44 30.47      
Jan 16 04:40 Calm 3 Fog/Mist OVC004 28 27     93%     30.44 30.47      
Jan 16 04:38 Calm 2.5 Fog/Mist OVC004 28 27     93%     30.44 30.47      
Jan 16 04:35 Calm 2.25 Fog/Mist OVC004 28 27     93%     30.43 30.46      
Jan 16 04:30 SSE 3 2.5 Fog/Mist OVC003 28 27     93% 25   30.44 30.47      
Jan 16 04:19 SE 3 2.5 Fog/Mist OVC003 28 27     93% 25   30.43 30.46      
Jan 16 04:08 ESE 3 2.5 Fog/Mist OVC003 28 27     93% 25   30.44 30.47      
Jan 16 04:04 ESE 5 2.75 Fog/Mist OVC003 28 27     93% 23   30.44 30.47      
Jan 16 03:56 ESE 3 4 Fog/Mist OVC003 28 27     95% 24   30.44 30.47      
Jan 16 02:56 Calm 5 Fog/Mist OVC003 27 26     94%     30.44 30.47      
Jan 16 02:41 Calm 7 Cloudy OVC003 28 27     93%     30.45 30.48      
Jan 16 01:56 Calm 5 Fog/Mist OVC004 27 26     93%     30.44 30.47      
Jan 16 01:01 Calm 9 Cloudy OVC006 28 25     86%     30.46 30.49      
Jan 16 00:56 Calm 9 Cloudy OVC007 27 24     88%     30.45 30.48      
Jan 15 23:56 Calm 10 Cloudy OVC007 28 23     83%     30.46 30.49      
Jan 15 23:51 Calm 10 Cloudy OVC007 28 23     80%     30.46 30.49      
Jan 15 23:41 Calm 10 Cloudy OVC008 28 23     80%     30.46 30.49      
Jan 15 23:11 Calm 10 Cloudy OVC007 28 23     80%     30.48 30.51      
Jan 15 22:56 SSE 3 10 Cloudy OVC008 28 21     76% 24   30.47 30.5      
Jan 15 18:56 NE 3 10 Cloudy OVC013 28 20     71% 25   30.48 30.51      
Jan 15 18:26 Calm 10 Cloudy OVC014 28 19     69%     30.49 30.53      
Jan 15 17:56 E 5 10 Cloudy OVC016 29 20     70% 23   30.48 30.51      
Jan 15 16:56 E 3 10 Cloudy OVC016 29 20     67% 26   30.46 30.49      
Notice The following observation data may not be complete
Jan 15 15:56   10 Cloudy OVC017          %              
Jan 15 14:01 NE 7 10 Cloudy BKN019 OVC043 28 16     59% 21   30.46 30.49      
Jan 15 13:56 NE 7 10 Cloudy BKN020 OVC043 29 16     57% 22   30.46 30.49      
Jan 15 11:56 N 8 10 Cloudy BKN017 OVC044 26 15     61% 18   30.53 30.56      
Jan 15 11:51 NNE 6 10 Cloudy SCT017 OVC044 27 14     59% 20   30.54 30.58      
Jan 15 11:01 NNE 6 10 Mostly Cloudy BKN017 BKN022 BKN043 25 14     63% 18   30.58 30.61      
Jan 15 10:56 NNE 3 10 Cloudy SCT016 BKN021 BKN030 OVC043 24 13     64% 19   30.58 30.61      
Jan 15 10:26 N 6 10 Cloudy OVC020 23 12     63% 16   30.58 30.61      
Jan 15 08:56 NNE 9 10 Mostly Cloudy BKN012 19 10     69% 8   30.59 30.63      
Jan 15 08:51 NE 8 10 Mostly Cloudy BKN012 18 10     73% 7   30.58 30.61      
Jan 15 05:56 N 8 10 Clear CLR 13 7     74% 2   30.56 30.6      
Jan 15 04:56 NNE 8 10 Clear CLR 13 6     72% 2   30.57 30.6      
Jan 15 02:56 NNE 6 10 Clear CLR 13 6     73% 4   30.6 30.63      
Jun 11 17:58 SW 11 10 Clear   90 62     38%   91 30.07 30.08      
Jun 11 15:58 SSW 11 10 Clear CLR 92 58     33%   91 30.09 30.1      
Jun 09 00:58 Calm 10 Clear CLR 53 50     88%     29.82 29.84      
Notice The following observation data may not be complete
Jun 08 01:58   10 Clear CLR          %              
Jun 07 23:58 N 5 10 Clear CLR 53 50     88%     30.04 30.06      
Notice The following observation data may not be complete
Jun 07 18:58   10 Cloudy OVC038          %              
Jun 07 16:18 ENE 8 10 Mostly Cloudy BKN029 BKN200 64 54     68%     29.99 30.01      
Jun 07 15:48 ENE 11 10 Mostly Cloudy SCT023 BKN031 BKN160 64 54     68%     29.99 30.01      
Notice The following observation data may not be complete
Jun 07 13:23   10 Mostly Cloudy FEW022 BKN030          %              
Jun 07 11:13 E 9 10 Cloudy OVC014 61 55     82%     29.97 29.99      
Jun 07 09:18 E 9 10 Cloudy BKN014 OVC024 61 55     82%     29.95 29.97      
Jun 06 04:19 W 6 1.25 Fog/Mist SCT001 64 64     100%     29.66 29.67      
Jun 06 04:17 W 6 0.75 Fog/Mist VV001 64 64     100%     29.66 29.67      
Jun 06 01:10 Calm 1.25 Fog/Mist FEW041 63 63     100%     29.68 29.7      
Jun 06 00:57 Calm 0.75 Fog/Mist FEW065 63 63     100%     29.69 29.7